GW4731 Weather Reports


time (UTC)temp
F
wind
direction
speed
knots
gust
knots
rain 1hr
in
rain 24hr
in
rain mn
in
humidity
%
barometer
mb
20260507192404 67 9 3.5 7.0 0.00 0.00 0.00 43 1010.3
20260507191901 67 60 4.3 6.1 0.00 0.00 0.00 39 1010.2
20260507191357 66 119 0.9 3.5 0.00 0.00 0.00 45 1010.5
20260507190854 66 78 1.7 5.2 0.00 0.00 0.00 40 1010.6
20260507190352 64 84 0.0 2.6 0.00 0.00 0.00 43 1010.7
20260507185851 64 6 0.9 2.6 0.00 0.00 0.00 42 1010.7
20260507185348 65 31 2.6 5.2 0.00 0.00 0.00 45 1010.9
20260507184844 64 65 6.1 7.8 0.00 0.00 0.00 43 1010.7
20260507184342 66 30 2.6 6.1 0.00 0.00 0.00 46 1010.8
20260507183839 66 161 0.9 1.7 0.00 0.00 0.00 39 1010.7
20260507183336 66 350 2.6 3.5 0.00 0.00 0.00 38 1011.1
20260507182834 66 42 3.5 7.8 0.00 0.00 0.00 38 1010.7
20260507182329 67 327 2.6 2.6 0.00 0.00 0.00 38 1011.0
20260507181826 65 314 0.0 0.9 0.00 0.00 0.00 44 1011.0
20260507181321 65 34 2.6 7.0 0.00 0.00 0.00 42 1011.0
20260507180819 64 345 0.9 5.2 0.00 0.00 0.00 43 1011.1
20260507180316 64 336 4.3 7.0 0.00 0.00 0.00 43 1011.2
20260507175811 64 49 7.8 8.7 0.00 0.00 0.00 43 1011.4
20260507175308 63 76 2.6 5.2 0.00 0.00 0.00 44 1011.5
20260507174805 63 71 4.3 8.7 0.00 0.00 0.00 48 1011.5
20260507174303 64 49 6.1 7.8 0.00 0.00 0.00 41 1011.7
20260507173801 64 93 0.9 2.6 0.00 0.00 0.00 45 1011.8
20260507173258 63 16 4.3 7.8 0.00 0.00 0.00 41 1012.0
20260507172754 63 47 4.3 6.1 0.00 0.00 0.00 45 1012.0
20260507172251 64 52 6.1 7.8 0.00 0.00 0.00 43 1012.1
20260507171746 64 288 2.6 5.2 0.00 0.00 0.00 41 1012.2
20260507171243 63 18 5.2 7.0 0.00 0.00 0.00 41 1012.2
20260507170740 62 87 0.9 5.2 0.00 0.00 0.00 42 1012.4
20260507170237 61 217 1.7 6.1 0.00 0.00 0.00 43 1012.3
20260507165732 62 39 7.0 8.7 0.00 0.00 0.00 42 1012.3
20260507165229 63 47 6.1 9.6 0.00 0.00 0.00 40 1012.5
20260507164725 63 40 2.6 3.5 0.00 0.00 0.00 45 1012.8
20260507164223 63 303 4.3 5.2 0.00 0.00 0.00 40 1012.9
20260507163719 63 348 6.1 7.8 0.00 0.00 0.00 45 1012.6
20260507163218 62 276 1.7 2.6 0.00 0.00 0.00 43 1012.7
20260507162713 62 329 2.6 3.5 0.00 0.00 0.00 46 1013.0
20260507162209 62 341 6.1 7.8 0.00 0.00 0.00 40 1013.0
20260507161706 61 197 0.0 2.6 0.00 0.00 0.00 47 1013.2
20260507161202 60 26 3.5 7.8 0.00 0.00 0.00 46 1013.3
20260507160658 61 12 4.3 8.7 0.00 0.00 0.00 47 1013.2
20260507160155 62 339 2.6 11.3 0.00 0.00 0.00 47 1013.5
20260507155651 61 27 3.5 5.2 0.00 0.00 0.00 46 1013.4
20260507155148 59 4 1.7 2.6 0.00 0.00 0.00 45 1013.4
20260507154644 60 352 3.5 5.2 0.00 0.00 0.00 47 1013.4
20260507154142 60 32 5.2 7.0 0.00 0.00 0.00 47 1013.4
20260507153638 61 336 1.7 5.2 0.00 0.00 0.00 46 1013.6
20260507153135 60 323 1.7 7.8 0.00 0.00 0.00 46 1013.4
20260507152631 60 355 5.2 9.6 0.00 0.00 0.00 47 1013.6
20260507152127 60 30 5.2 11.3 0.00 0.00 0.00 46 1013.4
20260507151623 60 316 3.5 6.1 0.00 0.00 0.00 48 1013.3
20260507151120 59 7 2.6 9.6 0.00 0.00 0.00 49 1013.3
20260507150617 59 33 6.1 7.8 0.00 0.00 0.00 49 1013.5
20260507150114 58 48 7.8 9.6 0.00 0.00 0.00 50 1013.8
20260507145609 59 314 3.5 7.0 0.00 0.00 0.00 47 1013.6
20260507145108 59 341 5.2 7.0 0.00 0.00 0.00 48 1013.9
20260507144603 58 347 7.0 7.8 0.00 0.00 0.00 52 1014.0
20260507144102 58 68 4.3 8.7 0.00 0.00 0.00 56 1014.2
20260507143558 59 26 3.5 5.2 0.00 0.00 0.00 53 1014.3
20260507143055 58 351 4.3 6.1 0.00 0.00 0.00 51 1014.3
20260507142555 56 337 3.5 5.2 0.00 0.00 0.00 53 1014.4
20260507142053 56 34 2.6 7.0 0.00 0.00 0.00 55 1014.4
20260507141549 56 17 5.2 7.0 0.00 0.00 0.00 54 1014.5
20260507141046 55 353 3.5 6.1 0.00 0.00 0.00 56 1014.6
20260507140542 55 33 3.5 6.1 0.00 0.00 0.00 55 1014.9
20260507140040 55 325 3.5 5.2 0.00 0.00 0.00 54 1015.1
20260507135537 55 337 3.5 5.2 0.00 0.00 0.00 52 1015.2
20260507135034 55 22 4.3 7.8 0.00 0.00 0.00 56 1014.9
20260507134530 55 327 5.2 7.0 0.00 0.00 0.00 53 1015.0
20260507134026 55 13 3.5 5.2 0.00 0.00 0.00 53 1015.0
20260507133522 55 13 4.3 7.8 0.00 0.00 0.00 53 1015.2
20260507133021 55 315 1.7 3.5 0.00 0.00 0.00 57 1015.1
20260507132517 55 330 1.7 2.6 0.00 0.00 0.00 60 1015.3
20260507132013 55 1 2.6 3.5 0.00 0.00 0.00 59 1015.3
20260507131510 54 330 1.7 3.5 0.00 0.00 0.00 59 1015.4
20260507131008 54 17 3.5 5.2 0.00 0.00 0.00 59 1015.3
20260507130504 54 320 4.3 6.1 0.00 0.00 0.00 58 1015.3
20260507130003 54 332 2.6 5.2 0.00 0.00 0.00 60 1015.3
20260507125501 54 319 3.5 5.2 0.00 0.00 0.00 62 1015.3
20260507124958 53 329 1.7 5.2 0.00 0.00 0.00 61 1015.3
20260507124454 53 329 3.5 3.5 0.00 0.00 0.00 62 1015.3
20260507123952 53 345 0.9 2.6 0.00 0.00 0.00 64 1015.3
20260507123449 53 326 0.9 1.7 0.00 0.00 0.00 63 1015.3
20260507122946 53 324 1.7 2.6 0.00 0.00 0.00 65 1015.2
20260507122441 53 5 1.7 2.6 0.00 0.00 0.00 64 1015.2
20260507121937 53 325 0.9 2.6 0.00 0.00 0.00 65 1015.2
20260507121433 53 321 1.7 2.6 0.00 0.00 0.00 65 1015.2
20260507120930 53 16 1.7 2.6 0.00 0.00 0.00 67 1015.2
20260507120426 53 308 0.9 1.7 0.00 0.00 0.00 70 1015.3
20260507115922 53 355 0.9 1.7 0.00 0.00 0.00 70 1015.1
20260507115419 52 328 0.9 2.6 0.00 0.00 0.00 70 1015.2
20260507114914 52 317 0.9 2.6 0.00 0.00 0.00 71 1015.2
20260507114411 52 323 1.7 1.7 0.00 0.00 0.00 70 1015.0
20260507113908 52 332 1.7 1.7 0.00 0.00 0.00 72 1015.0
20260507113406 52 350 0.9 1.7 0.00 0.00 0.00 71 1014.9
20260507112903 52 345 0.9 1.7 0.00 0.00 0.00 71 1015.0
20260507112400 52 39 0.9 1.7 0.00 0.00 0.00 71 1014.7
20260507111858 51 3 0.9 1.7 0.00 0.00 0.00 71 1015.0
20260507111354 51 15 0.9 1.7 0.00 0.00 0.00 71 1015.0
20260507110850 51 355 0.9 0.9 0.00 0.00 0.00 71 1014.9
20260507110346 51 0 0.9 0.9 0.00 0.00 0.00 71 1015.0
20260507105844 51 11 0.9 1.7 0.00 0.00 0.00 73 1015.1
20260507105340 51 20 0.9 0.9 0.00 0.00 0.00 71 1015.1
20260507104837 51 30 0.0 1.7 0.00 0.00 0.00 72 1014.7
20260507104334 51 16 0.9 0.9 0.00 0.00 0.00 73 1014.6
20260507103830 51 2 0.0 0.0 0.00 0.00 0.00 75 1014.7
20260507103326 51 8 0.0 0.0 0.00 0.00 0.00 75 1014.5
20260507102823 51 3 0.0 0.9 0.00 0.00 0.00 73 1014.3
20260507102320 51 5 0.0 0.9 0.00 0.00 0.00 74 1014.4
20260507101816 51 18 1.7 1.7 0.00 0.00 0.00 73 1014.3
20260507101316 51 26 0.0 1.7 0.00 0.00 0.00 73 1014.4
20260507100813 51 23 0.0 0.0 0.00 0.00 0.00 74 1014.1
20260507100311 51 23 0.9 0.9 0.00 0.00 0.00 72 1014.5
20260507095809 51 33 0.9 0.9 0.00 0.00 0.00 72 1014.1
20260507095306 51 18 1.7 1.7 0.00 0.00 0.00 72 1014.0
20260507094802 52 24 0.9 1.7 0.00 0.00 0.00 72 1014.1
20260507094259 52 40 1.7 2.6 0.00 0.00 0.00 74 1013.9
20260507093756 52 40 1.7 2.6 0.00 0.00 0.00 74 1013.9
20260507093254 52 36 2.6 3.5 0.00 0.00 0.00 73 1014.0
20260507092752 52 18 1.7 3.5 0.00 0.00 0.00 74 1014.0
20260507092248 52 33 2.6 3.5 0.00 0.00 0.00 76 1013.9
20260507091744 53 35 1.7 3.5 0.00 0.00 0.00 76 1014.0
20260507091241 52 7 1.7 1.7 0.00 0.00 0.00 76 1014.1
20260507090736 53 30 1.7 1.7 0.00 0.00 0.00 76 1014.1
20260507090233 53 341 1.7 2.6 0.00 0.00 0.00 75 1014.0
20260507085730 53 344 1.7 2.6 0.00 0.00 0.00 75 1013.9
20260507085227 53 341 3.5 3.5 0.00 0.00 0.00 74 1014.2
20260507084724 53 342 2.6 3.5 0.00 0.00 0.00 75 1013.9
20260507084221 53 359 2.6 3.5 0.00 0.00 0.00 75 1014.1
20260507083718 53 338 1.7 2.6 0.00 0.00 0.00 77 1013.9
20260507083215 53 351 1.7 3.5 0.00 0.00 0.00 76 1013.8
20260507082711 53 354 1.7 2.6 0.00 0.00 0.00 76 1013.8
20260507082207 53 359 1.7 3.5 0.00 0.00 0.00 76 1014.0
20260507081704 54 355 0.9 2.6 0.00 0.00 0.00 76 1014.0
20260507081159 54 349 3.5 3.5 0.00 0.00 0.00 76 1014.0
20260507080656 54 339 1.7 6.1 0.00 0.00 0.00 77 1013.9
20260507080153 54 14 2.6 5.2 0.00 0.00 0.00 78 1013.6
20260507075648 54 30 1.7 2.6 0.00 0.00 0.00 78 1013.6
20260507075144 54 355 2.6 3.5 0.00 0.00 0.00 78 1013.6
20260507074641 54 5 2.6 2.6 0.00 0.00 0.00 79 1013.4
20260507074139 54 350 2.6 2.6 0.00 0.00 0.00 79 1013.3
20260507073635 54 21 2.6 2.6 0.00 0.00 0.00 80 1013.6
20260507073132 54 354 0.0 0.0 0.00 0.00 0.00 80 1013.4
20260507072630 54 6 0.9 2.6 0.00 0.00 0.00 80 1013.5
20260507072127 54 346 2.6 3.5 0.00 0.00 0.00 80 1013.2
20260507071624 53 9 1.7 2.6 0.00 0.00 0.00 83 1013.2
20260507071120 53 16 1.7 2.6 0.00 0.00 0.00 84 1013.2
20260507070618 53 34 1.7 2.6 0.00 0.00 0.00 84 1013.3
20260507070115 53 23 1.7 1.7 0.00 0.00 0.00 84 1013.4
20260507065611 53 351 0.9 1.7 0.00 0.00 0.00 85 1013.5
20260507065108 53 345 0.0 0.0 0.00 0.00 0.00 85 1013.5
20260507064606 53 339 0.0 0.0 0.00 0.00 0.00 85 1013.5
20260507064104 53 339 0.0 0.0 0.00 0.00 0.00 84 1013.6
20260507063601 53 339 0.9 0.9 0.00 0.00 0.00 84 1013.8
20260507063058 53 349 0.0 0.9 0.00 0.00 0.00 83 1013.7
20260507062554 54 343 0.9 1.7 0.00 0.00 0.00 83 1013.7
20260507062052 54 324 1.7 2.6 0.00 0.00 0.00 83 1013.6
20260507061550 54 4 1.7 3.5 0.00 0.00 0.00 81 1013.9
20260507061048 55 313 1.7 2.6 0.00 0.00 0.00 81 1014.2
20260507060546 55 7 1.7 1.7 0.00 0.00 0.00 81 1014.1
20260507060042 55 319 2.6 2.6 0.00 0.00 0.00 80 1014.1
20260507055537 55 320 1.7 1.7 0.00 0.00 0.00 80 1014.2
20260507055033 55 318 0.9 1.7 0.00 0.00 0.00 80 1014.1
20260507054529 55 341 1.7 1.7 0.00 0.00 0.00 79 1014.0
20260507054027 55 326 1.7 1.7 0.00 0.00 0.00 80 1013.9
20260507053525 55 343 1.7 1.7 0.00 0.00 0.00 80 1013.9
20260507053023 55 326 1.7 1.7 0.00 0.00 0.00 80 1013.9
20260507052520 55 356 0.9 2.6 0.00 0.00 0.00 80 1013.5
20260507052017 55 356 1.7 1.7 0.00 0.00 0.00 80 1013.6
20260507051515 55 13 1.7 2.6 0.00 0.00 0.00 79 1013.5
20260507051011 55 18 1.7 2.6 0.00 0.00 0.00 79 1013.5
20260507050508 55 350 3.5 6.1 0.00 0.00 0.00 78 1013.6
20260507050005 55 341 2.6 5.2 0.00 0.00 0.00 78 1013.7
20260507045501 55 347 2.6 2.6 0.00 0.00 0.00 79 1013.5
20260507044958 55 319 3.5 6.1 0.00 0.00 0.00 78 1013.5
20260507044455 55 352 2.6 7.0 0.00 0.00 0.00 78 1013.5
20260507043951 56 6 2.6 5.2 0.00 0.00 0.00 79 1013.6
20260507043447 55 8 5.2 7.8 0.00 0.00 0.00 80 1013.4
20260507042944 55 342 1.7 2.6 0.00 0.00 0.00 82 1013.3
20260507042441 55 8 1.7 3.5 0.00 0.00 0.00 81 1012.9
20260507041936 55 325 2.6 3.5 0.00 0.00 0.00 81 1013.3
20260507041433 56 356 3.5 3.5 0.00 0.00 0.00 81 1013.3
20260507040931 56 0 4.3 6.1 0.00 0.00 0.00 81 1013.4
20260507040431 56 339 3.5 7.0 0.00 0.00 0.00 81 1013.4
20260507035927 56 319 5.2 6.1 0.00 0.12 0.12 81 1013.7
20260507035424 56 321 3.5 6.1 0.00 0.12 0.12 82 1013.6
20260507034921 56 31 7.8 8.7 0.00 0.12 0.12 82 1013.4
20260507034418 56 0 3.5 7.0 0.00 0.12 0.12 83 1013.2
20260507033916 56 11 5.2 7.8 0.00 0.12 0.12 83 1013.1
20260507033414 56 354 3.5 7.8 0.00 0.12 0.12 83 1013.4
20260507032911 57 351 4.3 6.1 0.00 0.12 0.12 82 1013.3
20260507032407 57 7 2.6 6.1 0.00 0.12 0.12 82 1013.3
20260507031903 57 344 5.2 7.0 0.00 0.12 0.12 81 1013.5
20260507031400 57 348 4.3 5.2 0.00 0.12 0.12 82 1013.4
20260507030857 57 348 4.3 7.0 0.00 0.12 0.12 82 1013.1
20260507030354 58 318 2.6 2.6 0.00 0.12 0.12 80 1013.4
20260507025851 58 296 2.6 3.5 0.00 0.12 0.12 80 1013.5
20260507025349 58 334 4.3 6.1 0.00 0.12 0.12 80 1013.3
20260507024846 58 332 4.3 6.1 0.00 0.12 0.12 80 1013.1
20260507024343 58 359 4.3 7.0 0.00 0.12 0.12 80 1013.0
20260507023839 58 334 4.3 6.1 0.00 0.12 0.12 80 1012.8
20260507023336 58 336 7.8 9.6 0.00 0.12 0.12 80 1013.0
20260507022833 58 4 4.3 7.8 0.00 0.12 0.12 80 1012.8
20260507022330 59 342 3.5 5.2 0.00 0.12 0.12 79 1013.1
20260507021825 59 9 2.6 7.0 0.00 0.12 0.12 79 1012.9
20260507021321 59 2 4.3 6.1 0.00 0.12 0.12 79 1012.5
20260507020819 59 29 4.3 6.1 0.00 0.12 0.12 79 1012.5
20260507020315 59 342 2.6 5.2 0.00 0.12 0.12 80 1012.9
20260507015813 60 332 2.6 3.5 0.00 0.12 0.12 79 1012.6
20260507015310 60 345 0.9 3.5 0.00 0.12 0.12 80 1012.5
20260507014807 60 350 0.9 2.6 0.00 0.12 0.12 80 1012.5
20260507014304 60 10 2.6 3.5 0.00 0.12 0.12 79 1012.7
20260507013800 60 342 0.9 6.1 0.00 0.12 0.12 79 1012.6
20260507013257 60 332 1.7 5.2 0.00 0.12 0.12 79 1012.9
20260507012755 60 332 3.5 5.2 0.00 0.12 0.12 80 1012.3
20260507012250 60 303 5.2 6.1 0.00 0.12 0.12 79 1012.0
20260507011748 61 304 3.5 6.1 0.00 0.12 0.12 79 1012.1
20260507011244 60 326 2.6 6.1 0.00 0.12 0.12 78 1012.2
20260507010744 60 323 2.6 3.5 0.00 0.12 0.12 79 1012.1
20260507010240 60 23 2.6 3.5 0.00 0.12 0.12 80 1011.9
20260507005738 61 354 2.6 3.5 0.00 0.12 0.12 81 1012.0
20260507005234 61 18 0.9 1.7 0.00 0.12 0.12 81 1012.4
20260507004731 61 315 0.9 2.6 0.00 0.12 0.12 81 1012.5
20260507004229 61 315 0.9 2.6 0.00 0.12 0.12 81 1012.5
20260507003724 61 310 2.6 2.6 0.00 0.12 0.12 82 1012.5
20260507003220 61 293 1.7 3.5 0.00 0.12 0.12 82 1012.4
20260507002716 61 307 2.6 3.5 0.00 0.12 0.12 81 1012.1
20260507002212 62 339 2.6 6.1 0.00 0.12 0.12 79 1012.0
20260507001709 62 266 3.5 6.1 0.00 0.12 0.12 78 1012.1
20260507001206 62 317 4.3 5.2 0.00 0.12 0.12 78 1011.9
20260507000702 62 329 2.6 7.0 0.00 0.12 0.12 78 1012.2
20260507000158 63 315 1.7 3.5 0.00 0.12 0.12 80 1012.0
20260506235655 63 296 5.2 7.0 0.00 0.12 0.12 79 1011.7
20260506235151 63 323 2.6 8.7 0.00 0.12 0.12 82 1011.9
20260506234648 63 322 2.6 5.2 0.00 0.12 0.12 82 1011.7
20260506234145 64 269 1.7 2.6 0.00 0.12 0.12 81 1011.3
20260506233642 64 282 1.7 3.5 0.00 0.12 0.12 81 1011.4
20260506233139 64 264 1.7 2.6 0.00 0.12 0.12 83 1011.3
20260506232635 64 290 1.7 1.7 0.00 0.12 0.12 83 1011.1
20260506232131 64 327 1.7 3.5 0.00 0.12 0.12 82 1011.0
20260506231628 64 299 3.5 3.5 0.00 0.12 0.12 80 1010.8
20260506231126 64 321 1.7 3.5 0.00 0.12 0.12 81 1010.9
20260506230623 65 305 3.5 7.8 0.00 0.12 0.12 81 1010.8
20260506230120 65 334 3.5 5.2 0.00 0.12 0.12 82 1010.9
20260506225616 65 17 1.7 3.5 0.00 0.12 0.12 82 1010.3
20260506225113 66 307 2.6 5.2 0.00 0.12 0.12 82 1010.8
20260506224610 67 345 2.6 3.5 0.00 0.12 0.12 82 1010.6
20260506224106 66 328 0.9 3.5 0.00 0.12 0.12 82 1010.7
20260506223602 66 339 1.7 5.2 0.00 0.12 0.12 81 1010.5
20260506223059 66 335 1.7 3.5 0.00 0.12 0.12 82 1010.8
20260506222556 66 341 2.6 5.2 0.00 0.12 0.12 82 1010.6
20260506222052 67 19 4.3 6.1 0.00 0.12 0.12 81 1010.3
20260506221550 67 335 1.7 3.5 0.00 0.12 0.12 83 1010.1
20260506221048 67 3 4.3 6.1 0.00 0.12 0.12 82 1010.3
20260506220543 67 319 3.5 3.5 0.00 0.12 0.12 81 1010.2
20260506220039 67 338 2.6 6.1 0.00 0.12 0.12 80 1010.0
20260506215536 68 313 4.3 6.1 0.00 0.12 0.12 80 1009.8
20260506215032 68 318 7.0 8.7 0.00 0.12 0.12 79 1009.9
20260506214529 69 6 3.5 7.8 0.00 0.12 0.12 82 1009.7
20260506214026 69 26 0.9 1.7 0.00 0.12 0.12 82 1009.7
20260506213524 69 90 0.0 0.0 0.00 0.12 0.12 82 1009.7
20260506213021 69 96 0.0 0.0 0.00 0.12 0.12 82 1009.8
20260506212518 69 154 0.9 1.7 0.00 0.12 0.12 82 1009.6
20260506212013 69 94 0.0 0.0 0.00 0.12 0.12 82 1009.6
20260506211509 69 79 0.0 0.0 0.00 0.12 0.12 81 1009.5
20260506211006 69 67 0.9 1.7 0.00 0.12 0.12 82 1009.5
20260506210502 69 82 1.7 2.6 0.00 0.12 0.12 83 1009.4
20260506205959 69 92 0.9 1.7 0.00 0.12 0.12 83 1009.2
20260506205455 68 127 0.9 2.6 0.00 0.12 0.12 84 1009.1
20260506204951 68 81 2.6 3.5 0.00 0.12 0.12 83 1009.1
20260506204450 69 116 1.7 2.6 0.00 0.12 0.12 83 1009.1
20260506203947 68 119 0.0 1.7 0.00 0.12 0.12 84 1009.0
20260506203444 68 85 0.9 2.6 0.00 0.12 0.12 85 1009.0
20260506202941 67 105 0.0 0.9 0.00 0.12 0.12 86 1009.0
20260506202438 67 152 0.0 1.7 0.00 0.12 0.12 86 1009.2
20260506201934 67 165 0.0 0.9 0.00 0.12 0.12 87 1009.2
20260506201432 67 129 0.9 1.7 0.00 0.12 0.12 86 1009.2
20260506200928 67 79 0.0 1.7 0.00 0.12 0.12 86 1009.3
20260506200425 67 67 0.9 1.7 0.00 0.12 0.12 87 1009.0
20260506195921 67 69 1.7 1.7 0.00 0.12 0.12 86 1009.1
20260506195418 67 49 1.7 1.7 0.00 0.12 0.12 87 1009.1
20260506194915 67 29 0.9 1.7 0.00 0.12 0.12 87 1009.3
20260506194412 66 33 1.7 3.5 0.00 0.12 0.12 86 1009.2
20260506193909 67 17 4.3 5.2 0.00 0.12 0.12 85 1009.2
20260506193406 67 12 2.6 5.2 0.00 0.12 0.12 85 1009.1
20260506192902 67 8 2.6 5.2 0.00 0.12 0.12 85 1009.1